{"data":{"norad_id":68279,"intl_designator":"2026-055T","name":"STARLINK-36934","alt_names":[],"object_type":"PAYLOAD","status":"ACTIVE","operator":null,"country":"US","launch_date":"2026-03-19","launch_site_code":"AFETR","launch_vehicle":null,"mission":null,"orbit_class":"UNKNOWN","rcs_meters":null,"size_class":null,"mass_kg":null,"dimensions":null,"purposes":["comms"],"wikipedia_slug":null,"has_3d_model":false,"image_url":null,"decayed_at":null,"tle_current":{"epoch":"2026-05-25T00:00:02.000160Z","epoch_age_seconds":71875,"freshness":"FRESH","line1":"1 68279U 26055T   26145.00002315  .00048570  00000+0  13954-2 0  9996","line2":"2 68279  53.1587 323.8994 0001083  83.5025  49.7461 15.35374795  5832","mean_motion":15.35374795,"eccentricity":0.0001083,"inclination_deg":53.1587,"raan_deg":323.8994,"arg_perigee_deg":83.5025,"mean_anomaly_deg":49.7461,"bstar":0.0013954,"rev_number":583,"period_min":93.788175023415,"perigee_km":459.06692764805,"apogee_km":460.54802642177,"semimajor_km":6837.9444770349,"source":"CELESTRAK","updated_at":"2026-05-25T13:38:21.893617Z"}}}